DW8487 Weather Reports


time (UTC)temp
C
wind
direction
speed
KPH
gust
KPH
rain 1hr
cm
rain 24hr
cm
rain mn
cm
humidity
%
barometer
mb
20260507001513 1 142 6.4 9.7 0.00 0.36 0.00 81 1013.2
20260507000022 1 149 3.2 9.7 0.00 0.36 0.00 82 1013.3
20260506234509 2 162 3.2 8.0 0.00 0.36 0.00 81 1013.1
20260506233009 2 161 4.8 8.0 0.00 0.36 0.00 81 1013.2
20260506231508 2 165 6.4 8.0 0.00 0.36 0.00 82 1013.2
20260506230007 2 151 4.8 9.7 0.00 0.36 0.00 83 1013.0
20260506224507 2 178 3.2 11.3 0.00 0.36 0.00 83 1013.1
20260506223006 2 170 6.4 11.3 0.00 0.36 0.00 83 1013.1
20260506221502 2 159 4.8 8.0 0.00 0.36 0.00 83 1013.2
20260506220059 2 182 6.4 8.0 0.00 0.36 0.00 83 1013.0
20260506214609 2 149 4.8 11.3 0.00 0.36 0.36 83 1012.9
20260506213057 2 175 3.2 8.0 0.00 0.36 0.36 84 1012.6
20260506211557 2 190 3.2 12.9 0.00 0.36 0.36 84 1012.4
20260506210057 2 149 3.2 4.8 0.00 0.36 0.36 84 1012.3
20260506204553 2 148 3.2 8.0 0.00 0.38 0.36 83 1012.1
20260506203055 2 163 4.8 11.3 0.00 0.38 0.36 84 1012.0
20260506201618 3 144 3.2 6.4 0.00 0.38 0.36 83 1011.9
20260506200120 3 144 3.2 6.4 0.00 0.41 0.36 82 1011.7
20260506194545 3 144 4.8 8.0 0.00 0.41 0.36 83 1011.5
20260506193046 3 144 3.2 6.4 0.00 0.41 0.36 83 1011.3
20260506191546 3 144 3.2 8.0 0.00 0.41 0.36 82 1011.0
20260506190040 3 144 3.2 6.4 0.00 0.48 0.36 83 1010.7
20260506184538 4 140 3.2 8.0 0.00 0.48 0.36 82 1010.6
20260506183037 5 134 4.8 6.4 0.00 0.48 0.36 81 1010.3
20260506181538 6 134 4.8 6.4 0.00 0.48 0.36 79 1010.3
20260506180046 6 130 3.2 4.8 0.00 0.48 0.36 79 1009.9
20260506174536 6 73 6.4 14.5 0.00 0.48 0.36 73 1009.8
20260506173035 7 29 4.8 12.9 0.00 0.48 0.36 73 1009.7
20260506171547 7 59 1.6 12.9 0.00 0.48 0.36 73 1009.5
20260506170036 7 13 6.4 16.1 0.00 0.48 0.36 73 1009.3
20260506164537 7 60 1.6 4.8 0.00 0.48 0.36 75 1009.1
20260506163044 7 360 1.6 3.2 0.00 0.48 0.36 76 1009.0
20260506161544 7 360 3.2 8.0 0.00 0.48 0.36 73 1008.9
20260506160033 8 105 1.6 8.0 0.00 0.51 0.36 72 1008.8
20260506154532 8 105 1.6 6.4 0.00 0.51 0.36 70 1008.7
20260506153032 9 79 3.2 8.0 0.00 0.51 0.36 69 1008.7
20260506151531 8 52 3.2 16.1 0.00 0.51 0.36 67 1008.6
20260506150034 9 5 9.7 20.9 0.00 0.61 0.36 68 1008.6
20260506144529 10 346 3.2 8.0 0.00 0.61 0.36 71 1008.5
20260506143026 8 90 1.6 25.7 0.00 0.61 0.36 73 1008.6
20260506141525 8 355 12.9 25.7 0.00 0.61 0.36 78 1008.7
20260506140025 8 355 11.3 19.3 0.00 0.61 0.36 80 1008.6
20260506134557 8 276 0.0 4.8 0.00 0.61 0.36 76 1008.6
20260506133024 8 35 0.0 9.7 0.00 0.61 0.36 77 1008.6
20260506131526 8 342 1.6 8.0 0.00 0.61 0.36 78 1008.7
20260506130021 8 323 3.2 4.8 0.00 0.61 0.36 78 1008.7
20260506124518 8 63 1.6 6.4 0.00 0.61 0.36 82 1008.9
20260506123016 7 28 1.6 6.4 0.00 0.61 0.36 80 1008.8
20260506121515 7 344 0.0 4.8 0.00 0.61 0.36 82 1008.9
20260506120012 7 344 0.0 4.8 0.00 0.66 0.36 89 1009.0
20260506114519 6 326 6.4 14.5 0.00 0.66 0.36 91 1009.0
20260506113006 5 151 0.0 4.8 0.00 0.66 0.36 93 1009.1
20260506111502 5 92 1.6 9.7 0.05 0.66 0.36 93 1009.0
20260506110006 5 347 4.8 12.9 0.05 0.66 0.36 94 1009.2
20260506104501 5 17 4.8 9.7 0.05 0.66 0.36 94 1009.1
20260506101559 5 25 11.3 22.5 0.05 0.61 0.33 94 1008.6
20260506100059 5 51 12.9 22.5 0.03 0.61 0.30 94 1008.3
20260506094555 5 71 4.8 8.0 0.03 0.61 0.30 94 1008.5
20260506093058 5 360 3.2 6.4 0.00 0.58 0.28 94 1008.4
20260506091553 5 16 1.6 8.0 0.03 0.58 0.28 94 1008.2
20260506090053 5 38 3.2 8.0 0.03 0.58 0.28 94 1008.3
20260506084555 5 38 3.2 9.7 0.03 0.58 0.28 94 1008.3
20260506083112 5 10 3.2 14.5 0.03 0.58 0.28 94 1008.2
20260506081552 5 346 4.8 17.7 0.00 0.56 0.25 94 1008.2
20260506073045 5 355 0.0 3.2 0.03 0.56 0.25 94 1007.7
20260506071545 5 355 0.0 8.0 0.05 0.56 0.25 94 1007.8
20260506061541 5 57 0.0 1.6 0.15 0.51 0.20 94 1007.7
20260506044526 5 22 0.0 3.2 0.03 0.58 0.03 94 1008.2
20260506043025 5 22 1.6 6.4 0.00 0.56 0.00 94 1008.2
20260506041523 5 22 1.6 4.8 0.00 0.56 0.00 94 1008.4
20260506040026 5 355 0.0 3.2 0.00 0.58 0.00 94 1008.5
20260506034520 5 355 0.0 6.4 0.00 0.58 0.00 94 1008.9
20260506033019 5 355 1.6 6.4 0.00 0.58 0.00 94 1009.0
20260506031526 5 23 1.6 4.8 0.00 0.58 0.00 94 1009.1
20260506030016 5 23 0.0 3.2 0.00 0.58 0.00 94 1009.3
20260506024529 5 23 0.0 1.6 0.00 0.58 0.00 94 1009.7
20260506023013 5 23 1.6 6.4 0.00 0.58 0.00 94 1009.8
20260506021511 5 9 3.2 6.4 0.00 0.58 0.00 94 1010.2
20260506020009 5 346 1.6 6.4 0.00 0.58 0.00 94 1010.1
20260506014512 5 13 0.0 0.0 0.00 0.58 0.00 94 1010.4
20260506013034 5 13 0.0 3.2 0.00 0.58 0.00 94 1010.9
20260506011501 5 13 0.0 3.2 0.00 0.58 0.00 94 1011.2
20260506010059 5 13 1.6 4.8 0.00 0.58 0.00 94 1011.3
20260506004605 5 16 1.6 8.0 0.00 0.58 0.00 94 1011.4
20260506003056 5 23 3.2 6.4 0.00 0.58 0.00 94 1011.4